Location: Gad�tanya
(48.0500°N, 20.8500°E)
Time: 08:09:25
(UTC+00:00)

NOSS 0 Rocket - Pass Details

Date: 05 July 2020
Orbit: 934 x 955 km, 70.0° (Epoch: 05 August)

Event Time Altitude Azimuth Distance (km) Brightness Sun altitude
Exits shadow 20:23:37 15° 168° (SSE) 2,280 5.4 -12.8°
Maximum altitude 20:28:05 38° 108° (ESE) 1,399 4.5 -13.2°
Drops below altitude 10° 20:33:42 10° 42° (NE) 2,664 6.5 -13.7°
Sets 20:36:23 0° 35° (NE) 3,615 7.3 -13.9°
